Change the Weather History Date:

Monday, January 7, 2013

  Actual Average Record
Temperature  
Mean Temperature 23 °F -  
Max Temperature 36 °F 25 °F 44 °F (2008)
Min Temperature 10 °F 10 °F -17 °F (1968)
Degree Days  
Heating Degree Days 42    
Moisture  
Dew Point 18 °F    
Average Humidity 74    
Maximum Humidity 96    
Minimum Humidity 57    
Precipitation  
Precipitation 0.00 in - - ()
Sea Level Pressure  
Sea Level Pressure 30.13 in    
Wind  
Wind Speed 11 mph (SW)    
Max Wind Speed 22 mph    
Max Gust Speed 34 mph    
Visibility 9 miles    
Events      
Averages and records for this station are not official NWS values.
T = Trace of Precipitation, MM = Missing Value Source: NWS Daily Summary

Daily Weather History Graph

Daily Weather History Graph

Search for Another Location

Airport or City:

Trip Planner

Search our weather history database for the weather conditions in past years. The results will help you decide how hot, cold, wet, or windy it might be!

Date:

Astronomy

Jan. 07, 2013 Rise Set
Actual Time 7:24 AM CST 4:31 PM CST
Civil Twilight 6:52 AM CST 5:03 PM CST
Nautical Twilight 6:16 AM CST 5:39 PM CST
Astronomical Twilight 5:41 AM CST 6:14 PM CST
Moon 2:46 AM CST (1/7) 12:43 PM CST (1/7)
Length of Visible Light 10h 10m
Length of Day
9h 06m
Waning Crescent, 22% of the Moon is Illuminated
Jan 7
Waning Crescent
Jan 11
New
Jan 18
First Quarter
Jan 26
Full
Feb 3
Last Quarter

Hourly Weather History & Observations

Time (CST) Temp. Windchill Dew Point Humidity Pressure Visibility Wind Dir Wind Speed Gust Speed Precip Events Conditions
12:53 AM 12.0 °F 1.5 °F 10.9 °F 95% 30.28 in 6.0 mi WSW 6.9 mph - N/A   Clear
1:53 AM 12.9 °F 2.6 °F 10.0 °F 88% 30.27 in 5.0 mi SSW 6.9 mph - N/A   Clear
2:53 AM 10.9 °F 0.2 °F 10.0 °F 96% 30.27 in 4.0 mi SSW 6.9 mph - N/A   Clear
3:53 AM 12.0 °F 1.5 °F 10.0 °F 92% 30.24 in 8.0 mi SSW 6.9 mph - N/A   Clear
4:53 AM 14.0 °F 2.9 °F 10.0 °F 84% 30.23 in 10.0 mi SSW 8.1 mph - N/A   Clear
5:53 AM 16.0 °F 2.9 °F 8.1 °F 71% 30.21 in 10.0 mi SSW 11.5 mph - N/A   Clear
6:53 AM 17.1 °F 3.0 °F 10.0 °F 74% 30.19 in 10.0 mi SSW 13.8 mph - N/A   Clear
7:53 AM 19.9 °F 5.2 °F 12.9 °F 74% 30.18 in 10.0 mi South 17.3 mph - N/A   Clear
8:53 AM 21.9 °F 8.7 °F 15.1 °F 75% 30.17 in 10.0 mi South 15.0 mph - N/A   Clear
9:53 AM 28.0 °F 14.9 °F 17.1 °F 63% 30.14 in 10.0 mi SSW 19.6 mph 27.6 mph N/A   Clear
10:53 AM 28.9 °F 17.7 °F 18.0 °F 64% 30.14 in 10.0 mi SSW 15.0 mph - N/A   Clear
11:53 AM 33.1 °F 21.2 °F 19.9 °F 59% 30.07 in 10.0 mi SSW 20.7 mph 27.6 mph N/A   Clear
1:53 PM 36.0 °F 24.7 °F 21.9 °F 57% 30.03 in 10.0 mi SW 21.9 mph 34.5 mph N/A   Clear
2:53 PM 35.1 °F 24.5 °F 23.0 °F 61% 30.04 in 10.0 mi SSW 18.4 mph 24.2 mph N/A   Clear
3:53 PM 35.1 °F 24.8 °F 23.0 °F 61% 30.03 in 10.0 mi SW 17.3 mph - N/A   Clear
5:53 PM 33.1 °F 23.0 °F 23.0 °F 66% 30.04 in 10.0 mi SW 15.0 mph - N/A   Clear
6:53 PM 33.1 °F 23.0 °F 24.1 °F 70% 30.04 in 10.0 mi SW 15.0 mph - N/A   Clear
7:53 PM 33.1 °F 24.4 °F 24.1 °F 70% 30.03 in 10.0 mi SW 11.5 mph - N/A   Clear
8:53 PM 32.0 °F 23.6 °F 24.1 °F 73% 30.04 in 10.0 mi SW 10.4 mph - N/A   Clear
9:53 PM 33.1 °F 24.9 °F 25.0 °F 72% 30.05 in 10.0 mi SW 10.4 mph - N/A   Clear
10:53 PM 33.1 °F 23.0 °F 26.1 °F 75% 30.04 in 10.0 mi WSW 15.0 mph - N/A   Clear
11:53 PM 32.0 °F 23.0 °F 26.1 °F 79% 30.04 in 10.0 mi WSW 11.5 mph - N/A   Clear